Regional Weather Roundup
Issued by NWS

Home | Current Version | Previous Version | Text Only | Print | Product List | Glossary On
Versions: 1 2 3 4 5 6 7 8 9 10 11 12 13 14 15 16 17 18 19 20 21 22 23 24 25 26 27 28
000
ASUS45 KBOI 281010
RWRID

IDAHO REGIONAL WEATHER ROUNDUP
NATIONAL WEATHER SERVICE BOISE ID
400 AM MDT SAT MAY 28 2016

NOTE: "FAIR" INDICATES FEW OR NO CLOUDS BELOW 12000 FEET
WITH NO SIGNIFICANT WEATHER AND/OR OBSTRUCTIONS TO VISIBILITY

IDZ012-014-281100-
SOUTHWEST IDAHO


CITY           SKY/WX    TMP DP  RH WIND       PRES   REMARKS
BOISE          PTCLDY    47  31  53 NW6       30.03R
CALDWELL       PTCLDY    48  30  49 W9        30.04R
MOUNTAIN HOME  PTCLDY    49  35  59 NW12      30.02R
$$

IDZ016-017-281100-
SOUTHCENTRAL IDAHO


CITY           SKY/WX    TMP DP  RH WIND       PRES   REMARKS
BURLEY         CLEAR     42  31  64 SW12      30.00R
JEROME         CLEAR     44  30  57 S6        30.02R
TWIN FALLS     CLEAR     45  27  49 SW13      30.02R
$$

IDZ019>023-281100-
SOUTHEAST IDAHO


CITY           SKY/WX    TMP DP  RH WIND       PRES   REMARKS
IDAHO FALLS    CLEAR     44  32  62 S10       29.99S
POCATELLO      CLEAR     49  24  37 SW14      30.00R
REXBURG        CLEAR     43  33  68 S7        29.98S
$$

IDZ006-010-011-018-031-032-281100-
CENTRAL IDAHO MOUNTAINS


CITY           SKY/WX    TMP DP  RH WIND       PRES   REMARKS
MCCALL         PTCLDY    35  30  82 CALM      30.02S
HAILEY         CLEAR     37  32  81 NW6       30.01R WCI  33
STANLEY          N/A     27  23  85 CALM      30.04S
SALMON         PTCLDY    45  36  70 CALM      29.99S
CHALLIS        PTCLDY    38  32  79 N3        30.00S
$$

IDZ002-004-006-007-026-281100-
NORTHERN IDAHO


CITY           SKY/WX    TMP DP  RH WIND       PRES   REMARKS
LEWISTON       PTCLDY    48  39  71 CALM      30.04R
LOWELL           N/A     45  41  86 CALM      30.07S
COEUR D`ALENE  CLEAR     46  37  71 SE7       29.97S
MULLAN PASS    CLOUDY    34  27  75 SW7       30.01S WCI  28
$$




USA.gov is the U.S. government's official web portal to all federal, state and local government web resources and services.